"Pseudo-MPEC" for P20Uel1

Created 2019 Nov 13 9:07:14 UT using Find_Orb

Click here for an explanation of pseudo-MPECs

 
 Astrometry: 
     P20Uel1  C2019 11 05:BJo[6ptl;*N(Oee#Aqmg/9cAstrometry;(LqFwBH1#^\x*w\3%F52
     P20Uel1  C2019 11 051xDht;[aJu$f#+]Y+5Oredacted;M7:+Ov]Yt?lS*Exs?clickmTF52
     P20Uel1  C2019 11 05Z)_^`Du?O0HVGc;herev_x03qA!?u@2for)U*gnexplanationBMF52

Station data:
(F52) Pan-STARRS 2, Haleakala  (N20.707384 W156.255910)  US/Hawaii. 1.8-m
   Ritchey-Chrétien + CCD.

Orbital elements:  P20Uel1
   Perihelion 2019 Oct 12.607135 +/- 37.8 TT = 14:34:16 (JD 2458769.107135)
Epoch 2019 Nov  6.0 TT = JDT 2458793.5   Earth MOID: 0.0177   AutoNEOCP
M  18.82591968 +/- 17               (J2000 ecliptic)
n   0.77177976 +/- 0.365            Peri.  346.63274 +/- 70
a   1.17708309 +/- 0.371            Node    31.49256 +/- 60
e   0.1384469 +/- 0.248             Incl.    1.90318 +/- 2.7
P   1.28/466.45d           H 28.5   G  0.15   U 12.1  SR
q 1.01411950 +/- 0.194    Q 1.34004669 +/- 47.8
From 3 observations 2019 Nov. 5 (33.5 min); mean residual 0".01
Residuals in arcseconds: 
191105 F52  .00   .01+    191105 F52  .00   .01-    191105 F52  .00   .01+    

Ephemerides (geocentric):
Date (UTC) HH   RA              Dec         delta   r     elong  mag " sig PA
---- -- -- --  -------------   -----------  ------ ------ -----  --- ---- ---
2019 11 13 09  02 54 33.158   +31 35 13.52  .04526 1.0335 165.7 22.6  51d  15
2019 11 13 10  02 54 39.315   +31 36 19.86  .04532 1.0336 165.7 22.6  51d  15
2019 11 13 11  02 54 45.458   +31 37 25.93  .04538 1.0336 165.7 22.6  51d  15
2019 11 13 12  02 54 51.589   +31 38 31.73  .04544 1.0337 165.7 22.6  51d  15
2019 11 13 13  02 54 57.706   +31 39 37.27  .04551 1.0337 165.7 22.6  51d  15
2019 11 13 14  02 55 03.811   +31 40 42.55  .04557 1.0338 165.7 22.6  51d  15
2019 11 13 15  02 55 09.902   +31 41 47.56  .04563 1.0338 165.6 22.6  51d  15
2019 11 13 16  02 55 15.980   +31 42 52.30  .04570 1.0339 165.6 22.7  51d  15
2019 11 13 17  02 55 22.046   +31 43 56.79  .04576 1.0339 165.6 22.7  51d  15
2019 11 13 18  02 55 28.098   +31 45 01.01  .04582 1.0340 165.6 22.7  51d  15
2019 11 13 19  02 55 34.138   +31 46 04.98  .04588 1.0340 165.6 22.7  51d  15
2019 11 13 20  02 55 40.165   +31 47 08.68  .04595 1.0341 165.6 22.7  51d  15
2019 11 13 21  02 55 46.178   +31 48 12.13  .04601 1.0341 165.6 22.7  51d  15
2019 11 13 22  02 55 52.179   +31 49 15.31  .04607 1.0342 165.6 22.7  51d  15
2019 11 13 23  02 55 58.168   +31 50 18.24  .04614 1.0342 165.6 22.7  51d  14
2019 11 14 00  02 56 04.143   +31 51 20.92  .04620 1.0343 165.6 22.7  52d  14
2019 11 14 01  02 56 10.106   +31 52 23.33  .04626 1.0343 165.5 22.7  52d  14
2019 11 14 02  02 56 16.056   +31 53 25.50  .04633 1.0344 165.5 22.7  52d  14
2019 11 14 03  02 56 21.994   +31 54 27.41  .04639 1.0344 165.5 22.7  52d  14
2019 11 14 04  02 56 27.919   +31 55 29.06  .04645 1.0345 165.5 22.7  52d  14
2019 11 14 05  02 56 33.831   +31 56 30.47  .04652 1.0345 165.5 22.7  52d  14
2019 11 14 06  02 56 39.731   +31 57 31.62  .04658 1.0346 165.5 22.7  52d  14
2019 11 14 07  02 56 45.618   +31 58 32.52  .04664 1.0346 165.5 22.7  52d  14
2019 11 14 08  02 56 51.493   +31 59 33.17  .04671 1.0347 165.5 22.7  52d  14
2019 11 14 09  02 56 57.355   +32 00 33.57  .04677 1.0347 165.5 22.7  52d  14
2019 11 14 10  02 57 03.205   +32 01 33.73  .04683 1.0348 165.4 22.7  52d  14
2019 11 14 11  02 57 09.043   +32 02 33.63  .04690 1.0348 165.4 22.7  52d  14
2019 11 14 12  02 57 14.868   +32 03 33.29  .04696 1.0349 165.4 22.7  53d  14
2019 11 14 13  02 57 20.680   +32 04 32.70  .04703 1.0349 165.4 22.7  53d  14
2019 11 14 14  02 57 26.481   +32 05 31.87  .04709 1.0350 165.4 22.7  53d  14
2019 11 14 15  02 57 32.269   +32 06 30.79  .04715 1.0350 165.4 22.7  53d  14
2019 11 14 16  02 57 38.045   +32 07 29.47  .04722 1.0351 165.4 22.7  53d  14
2019 11 14 17  02 57 43.809   +32 08 27.91  .04728 1.0352 165.4 22.7  53d  14
2019 11 14 18  02 57 49.560   +32 09 26.10  .04735 1.0352 165.4 22.7  53d  14
2019 11 14 19  02 57 55.300   +32 10 24.05  .04741 1.0353 165.4 22.7  53d  14
2019 11 14 20  02 58 01.027   +32 11 21.76  .04747 1.0353 165.3 22.7  53d  14
2019 11 14 21  02 58 06.742   +32 12 19.23  .04754 1.0354 165.3 22.7  53d  14
2019 11 14 22  02 58 12.445   +32 13 16.47  .04760 1.0354 165.3 22.8  54d  14
2019 11 14 23  02 58 18.136   +32 14 13.46  .04767 1.0355 165.3 22.8  54d  14
2019 11 15 00  02 58 23.815   +32 15 10.21  .04773 1.0355 165.3 22.8  54d  14
2019 11 15 01  02 58 29.483   +32 16 06.73  .04780 1.0356 165.3 22.8  54d  14
2019 11 15 02  02 58 35.138   +32 17 03.01  .04786 1.0356 165.3 22.8  54d  14
2019 11 15 03  02 58 40.781   +32 17 59.06  .04792 1.0357 165.3 22.8  54d  14
2019 11 15 04  02 58 46.413   +32 18 54.87  .04799 1.0357 165.3 22.8  54d  14
2019 11 15 05  02 58 52.032   +32 19 50.45  .04805 1.0358 165.3 22.8  54d  14
2019 11 15 06  02 58 57.640   +32 20 45.79  .04812 1.0358 165.2 22.8  54d  14
2019 11 15 07  02 59 03.236   +32 21 40.90  .04818 1.0359 165.2 22.8  54d  14
2019 11 15 08  02 59 08.820   +32 22 35.78  .04825 1.0359 165.2 22.8  55d  14